This demonstration page uses our WeatherBlox Daily Observations layout. Learn more.

Left ArrowRight Arrow

Hourly Observations for January 18, 2020

Temp ( °F °C ) Dew Point ( °F °C ) Humidity (%) Winds ( mph kmh ) Pressure ( in mb ) Visibility ( mi km ) Precip ( " mm )
12:53 am 00:53 Clear -14 -25.6 -20 -28.9 74 74 SW 8 13 30.59 1036 10 16 0.00 0.00
1:53 am 01:53 Clear -12 -24.4 -19 -28.3 70 70 WSW 9 15 30.61 1037 10 16 0.00 0.00
2:53 am 02:53 Clear -11 -23.9 -18 -27.8 70 70 W 10 17 30.62 1037 10 16 0.00 0.00
3:53 am 03:53 Clear -13 -25 -20 -28.9 70 70 SW 10 17 30.63 1037 10 16 0.00 0.00
4:53 am 04:53 Clear -13 -25 -20 -28.9 70 70 SW 12 19 30.65 1038 10 16 0.00 0.00
5:53 am 05:53 Clear -13 -25 -21 -29.4 67 67 SW 12 19 30.66 1038 10 16 0.00 0.00
6:53 am 06:53 Clear -12 -24.4 -21 -29.4 63 63 WSW 9 15 30.68 1039 10 16 0.00 0.00
7:53 am 07:53 Clear -12 -24.4 -21 -29.4 63 63 WSW 10 17 30.67 1039 10 16 0.00 0.00
8:53 am 08:53 Sunny -10 -23.3 -20 -28.9 60 60 WSW 7 11 30.68 1039 10 16 0.00 0.00
9:53 am 09:53 Sunny -8 -22.2 -18 -27.8 61 61 WSW 9 15 30.70 1040 10 16 0.00 0.00
10:53 am 10:53 Sunny -5 -20.6 -17 -27.2 56 56 W 14 22 30.71 1040 10 16 0.00 0.00
11:53 am 11:53 Sunny -4 -20 -17 -27.2 53 53 W 12 19 30.68 1039 10 16 0.00 0.00
12:53 pm 12:53 Sunny -2 -18.9 -16 -26.7 50 50 W 13 20 30.66 1038 10 16 0.00 0.00
1:53 pm 13:53 Sunny -3 -19.4 -14 -25.6 58 58 SW 12 19 30.66 1038 10 16 0.00 0.00
2:53 pm 14:53 Sunny -3 -19.4 -14 -25.6 58 58 SW 9 15 30.64 1038 10 16 0.00 0.00
3:53 pm 15:53 Sunny -3 -19.4 -14 -25.6 58 58 SSW 6 9 30.63 1037 10 16 0.00 0.00
4:53 pm 16:53 Sunny -4 -20 -13 -25 65 65 WSW 6 9 30.65 1038 10 16 0.00 0.00
5:53 pm 17:53 Clear -3 -19.4 -12 -24.4 65 65 SSW 5 7 30.65 1038 10 16 0.00 0.00
6:53 pm 18:53 Clear -2 -18.9 -12 -24.4 62 62 Calm 30.64 1038 10 16 0.00 0.00
7:53 pm 19:53 Clear -2 -18.9 -12 -24.4 62 62 Calm 30.63 1037 10 16 0.00 0.00
8:53 pm 20:53 Mostly Cloudy -2 -18.9 -11 -23.9 65 65 E 3 6 30.64 1038 10 16 0.00 0.00
9:53 pm 21:53 Cloudy -4 -20 -11 -23.9 71 71 E 8 13 30.63 1037 10 16 0.00 0.00
10:53 pm 22:53 Cloudy -4 -20 -11 -23.9 71 71 ENE 10 17 30.62 1037 10 16 0.00 0.00
11:53 pm 23:53 Mostly Clear -4 -20 -12 -24.4 68 68 ENE 9 15 30.62 1037 10 16 0.00 0.00

Powered by AerisWeather